Change the Weather History Date:

Sunday, January 27, 2013

  Actual Average Record
Temperature  
Mean Temperature 14 °F -  
Max Temperature 28 °F 20 °F 48 °F (2006)
Min Temperature 0 °F 1 °F -30 °F (1966)
Degree Days  
Heating Degree Days 51    
Moisture  
Dew Point 12 °F    
Average Humidity 75    
Maximum Humidity 86    
Minimum Humidity 64    
Precipitation  
Precipitation 0.00 in - - ()
Sea Level Pressure  
Sea Level Pressure 29.97 in    
Wind  
Wind Speed 3 mph (ENE)    
Max Wind Speed 12 mph    
Max Gust Speed -    
Visibility 9 miles    
Events Snow    
Averages and records for this station are not official NWS values.
T = Trace of Precipitation, MM = Missing Value Source: NWS Daily Summary

Daily Weather History Graph

Daily Weather History Graph

Search for Another Location

Airport or City:

Trip Planner

Search our weather history database for the weather conditions in past years. The results will help you decide how hot, cold, wet, or windy it might be!

Date:

Astronomy

Jan. 27, 2013 Rise Set
Actual Time 7:37 AM CST 5:02 PM CST
Civil Twilight 7:04 AM CST 5:35 PM CST
Nautical Twilight 6:27 AM CST 6:12 PM CST
Astronomical Twilight 5:51 AM CST 6:48 PM CST
Moon 6:04 PM CST (1/27) 7:25 AM CST (1/27)
Length of Visible Light 10h 31m
Length of Day
9h 24m
Full, 100% of the Moon is Illuminated
Jan 27
Full
Feb 3
Last Quarter
Feb 10
New
Feb 17
First Quarter
Feb 25
Full

Hourly Weather History & Observations

Time (CST) Temp. Windchill Dew Point Humidity Pressure Visibility Wind Dir Wind Speed Gust Speed Precip Events Conditions
12:12 AM 8.6 °F - 1.4 °F 73% 30.12 in 10.0 mi Calm Calm - N/A   Scattered Clouds
12:51 AM 8.6 °F - 3.2 °F 79% 30.11 in 10.0 mi Calm Calm - N/A   Mostly Cloudy
1:12 AM 10.4 °F - 3.2 °F 73% 30.11 in 10.0 mi Calm Calm - N/A   Scattered Clouds
1:31 AM 10.4 °F 4.0 °F 3.2 °F 73% 30.10 in 10.0 mi SW 3.5 mph - N/A   Mostly Cloudy
1:51 AM 6.8 °F - 1.4 °F 79% 30.10 in 10.0 mi Calm Calm - N/A   Mostly Cloudy
2:12 AM 8.6 °F - 3.2 °F 79% 30.10 in 10.0 mi Calm Calm - N/A   Clear
2:31 AM 6.8 °F - 1.4 °F 79% 30.10 in 10.0 mi Calm Calm - N/A   Clear
2:51 AM 3.2 °F - -2.2 °F 78% 30.09 in 10.0 mi Calm Calm - N/A   Clear
3:12 AM 1.4 °F - -4.0 °F 78% 30.08 in 10.0 mi Calm Calm - N/A   Clear
3:31 AM 5.0 °F - -0.4 °F 78% 30.07 in 10.0 mi Calm Calm - N/A   Clear
3:51 AM 1.4 °F - -4.0 °F 78% 30.06 in 10.0 mi Calm Calm - N/A   Clear
4:12 AM 3.2 °F - -2.2 °F 78% 30.05 in 10.0 mi Calm Calm - N/A   Clear
4:31 AM 6.8 °F - 1.4 °F 79% 30.05 in 10.0 mi Calm Calm - N/A   Clear
4:51 AM 8.6 °F - 3.2 °F 79% 30.05 in 10.0 mi Calm Calm - N/A   Clear
5:12 AM 6.8 °F - 1.4 °F 79% 30.04 in 10.0 mi Calm Calm - N/A   Clear
5:51 AM 6.8 °F - 1.4 °F 79% 30.04 in 10.0 mi Calm Calm - N/A   Clear
6:12 AM 1.4 °F - -4.0 °F 78% 30.04 in 10.0 mi Calm Calm - N/A   Clear
6:31 AM 3.2 °F - -2.2 °F 78% 30.04 in 10.0 mi Calm Calm - N/A   Clear
6:51 AM -0.4 °F -8.3 °F -5.8 °F 78% 30.04 in 10.0 mi North 3.5 mph - N/A   Clear
7:11 AM -0.4 °F - -5.8 °F 78% 30.04 in 10.0 mi Calm Calm - N/A   Clear
7:31 AM 6.8 °F -0.1 °F 1.4 °F 79% 30.04 in 10.0 mi NNE 3.5 mph - N/A   Clear
7:51 AM 5.0 °F -2.1 °F -0.4 °F 78% 30.04 in 10.0 mi NNE 3.5 mph - N/A   Clear
8:11 AM 10.4 °F 0.8 °F 6.8 °F 85% 30.04 in 10.0 mi NNE 5.8 mph - N/A   Clear
8:31 AM 12.2 °F 2.9 °F 6.8 °F 79% 30.04 in 10.0 mi NNE 5.8 mph - N/A   Clear
8:51 AM 14.0 °F 6.5 °F 8.6 °F 79% 30.03 in 10.0 mi NNE 4.6 mph - N/A   Clear
9:11 AM 15.8 °F 7.2 °F 10.4 °F 79% 30.03 in 10.0 mi NNE 5.8 mph - N/A   Clear
9:31 AM 17.6 °F 10.7 °F 10.4 °F 73% 30.03 in 10.0 mi NNE 4.6 mph - N/A   Clear
9:51 AM 19.4 °F 12.8 °F 12.2 °F 74% 30.03 in 10.0 mi NE 4.6 mph - N/A   Clear
10:11 AM 21.2 °F 16.4 °F 12.2 °F 68% 30.03 in 10.0 mi NE 3.5 mph - N/A   Clear
10:31 AM 23.0 °F 17.0 °F 14.0 °F 68% 30.02 in 10.0 mi East 4.6 mph - N/A   Clear
10:51 AM 24.8 °F 16.9 °F 15.8 °F 69% 30.02 in 10.0 mi ENE 6.9 mph - N/A   Scattered Clouds
11:11 AM 24.8 °F 16.9 °F 15.8 °F 69% 30.01 in 10.0 mi ENE 6.9 mph - N/A   Scattered Clouds
11:31 AM 26.6 °F 19.1 °F 15.8 °F 64% 30.00 in 10.0 mi ENE 6.9 mph - N/A   Scattered Clouds
11:51 AM 26.6 °F 20.0 °F 15.8 °F 64% 29.99 in 10.0 mi East 5.8 mph - N/A   Clear
12:11 PM 26.6 °F 21.2 °F 15.8 °F 64% 29.99 in 10.0 mi East 4.6 mph - N/A   Clear
12:31 PM 26.6 °F 19.1 °F 15.8 °F 64% 29.98 in 10.0 mi East 6.9 mph - N/A   Clear
12:51 PM 26.6 °F 20.0 °F 15.8 °F 64% 29.97 in 10.0 mi East 5.8 mph - N/A   Clear
1:12 PM 26.6 °F 18.2 °F 15.8 °F 64% 29.96 in 10.0 mi East 8.1 mph - N/A   Scattered Clouds
1:31 PM 26.6 °F 17.5 °F 15.8 °F 64% 29.96 in 10.0 mi ENE 9.2 mph - N/A   Overcast
1:51 PM 26.6 °F 20.0 °F 15.8 °F 64% 29.96 in 10.0 mi East 5.8 mph - N/A   Overcast
2:12 PM 26.6 °F 18.2 °F 15.8 °F 64% 29.95 in 10.0 mi East 8.1 mph - N/A   Overcast
2:51 PM 26.6 °F 19.1 °F 17.6 °F 69% 29.94 in 10.0 mi ENE 6.9 mph - N/A   Overcast
3:12 PM 26.6 °F 18.2 °F 17.6 °F 69% 29.93 in 10.0 mi ENE 8.1 mph - N/A   Overcast
3:31 PM 26.6 °F 19.1 °F 17.6 °F 69% 29.93 in 10.0 mi NE 6.9 mph - N/A   Overcast
3:51 PM 26.6 °F 19.1 °F 17.6 °F 69% 29.93 in 10.0 mi NE 6.9 mph - N/A   Overcast
4:11 PM 26.6 °F 18.2 °F 17.6 °F 69% 29.92 in 10.0 mi ENE 8.1 mph - N/A   Overcast
4:31 PM 26.6 °F 19.1 °F 17.6 °F 69% 29.91 in 10.0 mi ENE 6.9 mph - N/A   Overcast
4:51 PM 26.6 °F 18.2 °F 17.6 °F 69% 29.90 in 10.0 mi ENE 8.1 mph - N/A   Overcast
5:11 PM 26.6 °F 18.2 °F 17.6 °F 69% 29.90 in 10.0 mi ENE 8.1 mph - N/A   Overcast
5:51 PM 26.6 °F 17.5 °F 19.4 °F 74% 29.89 in 10.0 mi ENE 9.2 mph - N/A   Overcast
6:11 PM 28.4 °F 19.7 °F 19.4 °F 69% 29.89 in 10.0 mi ENE 9.2 mph - N/A   Overcast
6:31 PM 28.4 °F 20.4 °F 19.4 °F 69% 29.89 in 10.0 mi NE 8.1 mph - N/A   Overcast
6:51 PM 28.4 °F 19.7 °F 19.4 °F 69% 29.89 in 10.0 mi ENE 9.2 mph - N/A   Overcast
7:11 PM 28.4 °F 18.5 °F 21.2 °F 74% 29.88 in 10.0 mi ENE 11.5 mph - N/A   Overcast
7:31 PM 28.4 °F 20.4 °F 21.2 °F 74% 29.87 in 10.0 mi ENE 8.1 mph - N/A   Overcast
7:51 PM 28.4 °F 20.4 °F 21.2 °F 74% 29.86 in 10.0 mi ENE 8.1 mph - N/A   Overcast
8:12 PM 28.4 °F 20.4 °F 21.2 °F 74% 29.86 in 10.0 mi ENE 8.1 mph - N/A   Overcast
8:31 PM 28.4 °F 21.2 °F 23.0 °F 80% 29.85 in 7.0 mi ENE 6.9 mph - N/A Snow Light Snow
8:51 PM 28.4 °F 20.4 °F 24.8 °F 86% 29.85 in 2.5 mi ENE 8.1 mph - N/A Snow Light Snow
9:12 PM 28.4 °F 22.2 °F 24.8 °F 86% 29.84 in 3.0 mi ENE 5.8 mph - N/A Snow Light Snow
9:31 PM 28.4 °F 20.4 °F 24.8 °F 86% 29.83 in 2.0 mi East 8.1 mph - N/A Snow Light Snow
10:11 PM 28.4 °F 21.2 °F 24.8 °F 86% 29.83 in 3.0 mi East 6.9 mph - N/A   Overcast
10:31 PM 28.4 °F 21.2 °F 24.8 °F 86% 29.82 in 5.0 mi East 6.9 mph - N/A Snow Light Snow
10:51 PM 28.4 °F 24.6 °F 24.8 °F 86% 29.82 in 5.0 mi East 3.5 mph - N/A Snow Light Snow
11:11 PM 28.4 °F 22.2 °F 24.8 °F 86% 29.82 in 5.0 mi East 5.8 mph - N/A   Haze
11:31 PM 28.4 °F 22.2 °F 24.8 °F 86% 29.82 in 4.0 mi East 5.8 mph - N/A Snow Light Snow
11:51 PM 28.4 °F 24.6 °F 24.8 °F 86% 29.82 in 3.0 mi East 3.5 mph - N/A Snow Light Snow